This is the latest recevied weather packets stored in our database for station/object K3FAZ. If no packets are shown the sender has not sent any weather packets the latest 10 day(s).
| Time | Temp. | Humidity | Pressure | Rain* | Wind** | Luminosity | Snow |
|---|---|---|---|---|---|---|---|
| 1777731940 | 3.89° C | 98% | 1018 hPa | 0 mm | - | 108 W/m² | - |
| 1777731637 | 3.33° C | 98% | 1018.1 hPa | 0 mm | - | 131 W/m² | - |
| 1777731335 | 3.33° C | 98% | 1018.1 hPa | 0 mm | - | 118 W/m² | - |
| 1777731032 | 3.33° C | 98% | 1018 hPa | 0 mm | - | 59 W/m² | - |
| 1777730731 | 3.33° C | 98% | 1018 hPa | 0 mm | - | 40 W/m² | - |
| 1777730427 | 3.33° C | 98% | 1018.2 hPa | 0 mm | - | 30 W/m² | - |
| 1777730122 | 3.33° C | 99% | 1018.1 hPa | 0 mm | - | 47 W/m² | - |
| 1777729819 | 3.33° C | 99% | 1018.3 hPa | 0 mm | - | 69 W/m² | - |
| 1777729516 | 3.33° C | 99% | 1018.2 hPa | 0 mm | - | 42 W/m² | - |
| 1777729213 | 3.33° C | 99% | 1018 hPa | 0 mm | - | 95 W/m² | - |
| 1777728909 | 3.33° C | 99% | 1018 hPa | 0 mm | - | 117 W/m² | - |
| 1777728607 | 2.78° C | 99% | 1018 hPa | 0 mm | - | 73 W/m² | - |
| 1777728303 | 3.33° C | 99% | 1018 hPa | 0 mm | - | 78 W/m² | - |
| 1777728001 | 2.78° C | 99% | 1018.1 hPa | 0 mm | - | 83 W/m² | - |
| 1777727698 | 3.33° C | 99% | 1018.1 hPa | 0 mm | - | 84 W/m² | - |
| 1777727394 | 2.78° C | 99% | 1018.1 hPa | 0 mm | - | 98 W/m² | - |
| 1777727092 | 2.78° C | 99% | 1018.4 hPa | 0 mm | - | 117 W/m² | - |
| 1777726789 | 2.78° C | 99% | 1018.4 hPa | 0 mm | - | 124 W/m² | - |
| 1777726486 | 2.78° C | 99% | 1018.3 hPa | 0 mm | - | 133 W/m² | - |
| 1777726183 | 2.78° C | 99% | 1018.2 hPa | 0 mm | - | 146 W/m² | - |
| 1777725879 | 2.78° C | 99% | 1018.4 hPa | 0 mm | - | 101 W/m² | - |
| 1777725577 | 2.78° C | 99% | 1018.5 hPa | 0 mm | - | 62 W/m² | - |
| 1777725275 | 2.78° C | 99% | 1018.5 hPa | 0 mm | - | 64 W/m² | - |
| 1777724972 | 2.78° C | 99% | 1018.5 hPa | 0 mm | - | 84 W/m² | - |
| 1777724668 | 2.78° C | 99% | 1018.6 hPa | 0 mm | - | 72 W/m² | - |
* Rain latest hour (hover to see other rain measurements)
** Current wind speed in m/s (hover to see current wind gust speed)